This is the latest recevied weather packets stored in our database for station/object WR9A-13. If no packets are shown the sender has not sent any weather packets the latest 1 day(s).
| Time | Temp. | Humidity | Pressure | Rain* | Wind** | Luminosity | Snow |
|---|---|---|---|---|---|---|---|
| 1778075733 | 11.67° C | 80% | 1014.3 hPa | 0 mm | - | - | - |
| 1778075429 | 11.11° C | 80% | 1014.3 hPa | 0 mm | - | - | - |
| 1778075116 | 11.11° C | 81% | 1014.2 hPa | 0 mm | - | - | - |
| 1778073326 | 10.56° C | 84% | 1013.6 hPa | 0 mm | - | - | - |
| 1778073023 | 10.56° C | 85% | 1013.4 hPa | 0 mm | - | - | - |
| 1778072732 | 10° C | 85% | 1013.5 hPa | 0 mm | - | - | - |
| 1778072139 | 9.44° C | 88% | 1013.4 hPa | 0 mm | - | - | - |
| 1778071230 | 8.89° C | 90% | 1013.3 hPa | 0 mm | - | - | - |
| 1778070926 | 8.89° C | 92% | 1013.2 hPa | 0 mm | - | - | - |
| 1778069734 | 8.33° C | 95% | 1013.1 hPa | 0 mm | - | - | - |
| 1778067637 | 6.67° C | 95% | 1012.7 hPa | 0 mm | - | - | - |
| 1778067324 | 6.11° C | 95% | 1012.4 hPa | 0 mm | - | - | - |
| 1778067040 | 6.11° C | 95% | 1012.5 hPa | 0 mm | - | - | - |
| 1778066415 | 6.11° C | 94% | 1012.4 hPa | 0 mm | - | - | - |
| 1778066132 | 6.11° C | 93% | 1012.3 hPa | 0 mm | - | - | - |
| 1778065223 | 6.11° C | 93% | 1012.1 hPa | 0 mm | - | - | - |
| 1778064931 | 6.11° C | 93% | 1012 hPa | 0 mm | - | - | - |
| 1778064315 | 6.67° C | 94% | 1011.5 hPa | 0 mm | - | - | - |
| 1778064032 | 6.67° C | 94% | 1011.3 hPa | 0 mm | - | - | - |
| 1778063720 | 6.67° C | 93% | 1011.4 hPa | 0 mm | - | - | - |
| 1778063415 | 6.67° C | 93% | 1011.3 hPa | 0 mm | - | - | - |
| 1778063121 | 6.67° C | 93% | 1011.3 hPa | 0 mm | - | - | - |
| 1778062223 | 6.67° C | 93% | 1011.6 hPa | 0 mm | - | - | - |
| 1778061932 | 7.22° C | 93% | 1011.4 hPa | 0 mm | - | - | - |
| 1778061644 | 7.22° C | 93% | 1011.3 hPa | 0 mm | - | - | - |
* Rain latest hour (hover to see other rain measurements)
** Current wind speed in m/s (hover to see current wind gust speed)